Location: Pisa
(43.7170°N, 10.3830°E)
Time: 20:12:12
(UTC+02:00)

ISS - Pass Details

Date: 20 May 2021
Orbit: 417 x 422 km, 51.6° (Epoch: 22 June)

Event Time Altitude Azimuth Distance (km) Brightness Sun altitude
Rises 22:56:02 0° 288° (WNW) 2,364 0.9 -18.6°
Reaches altitude 10° 22:58:29 10° 306° (NW) 1,502 0.1 -18.9°
Maximum altitude 23:01:07 21° 357° (N) 1,014 -1.1 -19.1°
Drops below altitude 10° 23:03:45 10° 49° (NE) 1,505 -0.9 -19.4°
Enters shadow 23:05:29 - 62° (ENE) 2,097 -0.3 -19.5°
